Showing default

TIANMU-1 16, 58701

Orbit data source: Space-Track

TIANMU-1 16, 58701 is a payload satellite owned by Hangtian Tianmu (CN) in SSO that was launched on Fri, 05 Jan 2024 UTC via a KUAIZHOU-1A launch vehicle from the Jiuquan Satellite Launch Center, China (JSC). Payload-class satellites include a variety of spacecraft equipped with specific instruments for various scientific and technological missions. These include communications satellites like Starlink; space stations such as the ISS; scientific satellites like the Hubble; Earth observation satellites from companies like Planet Labs, Umbra, and HawkEye 360; GPS; miniature CubeSats for education and research; and military/defense satellites.

Loading next visibility...
Identifier
58701, 2024-004B
Orbit
SSO
Last TLE update
4 hours ago
Origin
Manufacturer
Hangtian Tianmu
Mission
Operational Commercial Weather
Bus & Motor
TIANMU, Unknown motor
Mass
50 kg wet, ~50 kg dry
Launch date (UTC)
2024-01-05 (1 year ago)
Launch vehicle
KUAIZHOU-1A
Launch site
Jiuquan Satellite Launch Center, China (JSC)
Object type
Payload
Rocket body
Debris
Shape & HBR
Box, 1.5 m
Radar Cross Section
2.000 m², Medium (>0.1 m² and < 1m²)

Expand to show TLE details & history

TLE from 4 hours ago
0 TIANMU-1 16
1 58701U 24004B   25128.95253538  .00006379  00000-0  28557-3 0  9994
2 58701  97.4588 311.3179 0006690 353.4592   6.6555 15.21602129 74200
Epoch: 2025-05-08T22:51Z
Definitive object data (Epoch: 2025-05-08T22:51:39.056Z)
Latitude
-0.00009°
Longitude
101.38953°
Altitude
499.526 km
Speed
7.617 km/s
True Right ascension
20h 45m 16s
True Declination
0° 00' 00"
Sunlit
Object was in daylight at TLE epoch
Visualization TLE readout
Latitude
-80.91483°
Longitude
-132.94353°
Altitude
529.06 km
Speed
7.597 km/s
Apparent Right ascension
00h 08m 44s
Apparent Declination
-64° 59' 32"
Sunlit
Object is in daylight
Visualization observer readout
Local Sidereal Time
11:18:57
Azimuth
191.957° SSW
Elevation
-63.913°
Doppler factor
1
Orbital elements
Apogee altitude
502.574 km
Perigee altitude
493.373 km
Semi-major axis
6,876.111 km
Eccentricity
0.000669
Inclination
97.4588°
RAAN
311.3179°
Arg. of periapsis
353.4592°
True anomaly
6.66439°
Mean anomaly
6.6555°
Eccentric anomaly
6.65995°
Mean motion
3.80653 °/min
BSTAR
0.00028557
Orbital period
94.57 mins
Loading maneuver chart data...
Loading SW <> Apogee altitude chart data...
Loading historical data...
Loading historical data...
Loading historical data...
Loading historical data...
Loading historical data...
Loading historical data...
Loading historical data...
Other satellites on launch #4 in the year 2024 (2024-01-05 UTC)

TIANMU-1 16 Visibility forecast

Observer location: undefined°, undefined°

Span
Click to sort rows by Start time (UTC) header in descending order
Start Az.
Max El. time (UTC)
Max El. Az.
Max El.
End time (UTC)
End Az.
5 mins2025-05-09 11:37:39.832Z130.518° SE2025-05-09 11:40:39.832Z56.473° ENE27.387°2025-05-09 11:42:39.832Z15.122° NNE
5 mins2025-05-10 00:41:39.832Z34.144° NE2025-05-10 00:43:39.832Z97.853° ESE36.815°2025-05-10 00:46:39.832Z172.509° S
|